Location: ???????
(55.5500°N, 37.9833°E)
Time: 22:35:42
(UTC+00:00)

Daily predictions for brighter satellites

Satellite Brightness Start Highest point End
(mag) Time Altitude Azimuth Time Altitude Azimuth Time Altitude Azimuth
NOSS 3-1 (C) 3.7 16:00:56 10° WSW 16:06:42 76° NNW 16:13:39 10° NE
Iridium 4 Rocket 3.5 16:05:18 10° S 16:10:17 72° E 16:15:47 10° N
Sich 1 Rocket 4.3 16:09:58 10° SSE 16:13:59 33° E 16:18:05 10° NNE
Cosmos 1743 3.0 16:10:19 10° SSW 16:14:09 72° WNW 16:17:59 10° N
SJ-6B 3.6 16:12:12 10° SE 16:15:32 31° ENE 16:18:55 10° N
NOSS 2-3 (E) 4.0 16:11:38 10° SW 16:16:06 86° NW 16:21:44 10° NE
Cosmos 2263 Rocket 2.5 16:10:58 10° S 16:16:15 45° ESE 16:21:34 10° NE
ATLAS CENTAUR R/B 2.0 16:14:53 10° WSW 16:18:40 50° NW 16:22:20 10° NE
Meteor 2-9 Rocket 4.4 16:13:29 10° S 16:19:14 60° E 16:24:55 10° NNE
Cosmos 1464 Rocket 4.4 16:17:53 10° SSE 16:23:28 39° E 16:29:08 10° NNE
Cosmos 1844 Rocket 4.1 16:21:16 10° SE 16:24:17 15° E 16:27:19 10° ENE
SL-08 RB Rocket 3.8 16:20:13 10° SSE 16:24:43 57° ENE 16:29:12 10° N
CZ-2C R/B 3.5 16:19:34 10° S 16:24:51 73° WSW 16:30:28 10° NNW
Cosmos 2227 4.3 16:19:57 10° SSW 16:25:32 56° ESE 16:31:07 10° NE
ARIANE 5 R/B 4.4 16:23:02 10° E 16:25:35 15° NE 16:28:08 10° NNE
Cosmos 1943 3.9 16:21:01 10° NW 16:26:32 57° WSW 16:32:03 10° SSE
Cosmos 990 Rocket 3.9 16:21:45 10° SSW 16:26:50 66° ESE 16:31:58 10° NNE
SJ 16-02 1.5 16:25:11 10° SSW 16:29:35 78° WNW 16:34:00 10° NNE
NOSS 3-2 (A) 4.0 16:23:21 10° NW 16:30:30 85° NE 16:38:44 10° SE
IRS-1A Rocket 4.5 16:24:43 10° SE 16:30:32 63° ENE 16:36:19 10° NNW
Okean 2 Rocket 3.7 16:30:16 10° SSE 16:34:20 34° E 16:38:23 10° NNE
Ariane Rocket 3.0 16:32:19 10° SSE 16:37:20 66° ENE 16:42:25 10° NNW
Abrixas rocket 3.8 16:36:38 10° SSW 16:38:35 17° SSE 16:39:57 13° SE
Lacrosse 5 rocket 1.4 16:34:53 10° WSW 16:39:10 78° SSE 16:43:41 10° ENE
Cosmos 1833 Rocket 4.0 16:35:03 10° NNW 16:39:52 27° NNE 16:44:24 11° E
Cosmos 494 Rocket 4.5 16:35:52 10° NNW 16:40:56 46° NE 16:45:32 12° SE
Cosmos 2227 Rocket 3.8 16:36:54 10° WSW 16:42:09 37° NW 16:47:25 10° NNE
NOSS 2-3 (D) 4.2 16:37:53 10° WSW 16:42:23 69° NNW 16:48:04 10° NE
USA 116 3.5 16:40:27 10° NNE 16:43:45 80° WNW 16:47:20 10° SSW
Cosmos 1437 4.3 16:41:30 10° NNW 16:44:17 35° W 16:47:03 10° SSW
Resurs 1-3 4.1 16:43:10 11° SE 16:47:09 40° ENE 16:51:17 10° N
SPOT 3 Rocket 4.0 16:42:20 10° SE 16:47:11 43° ENE 16:52:02 10° N
Cosmos 1300 Rocket 3.9 16:43:44 10° SSE 16:47:54 43° E 16:52:06 10° NNE
MetOp-A 4.2 16:42:44 10° SSE 16:48:02 65° ENE 16:53:22 10° NNW
Cosmos 1891 Rocket 4.5 16:45:06 10° S 16:51:06 60° E 16:57:03 10° NNE
Cosmos 1867 4.3 16:46:17 10° NW 16:51:36 52° SW 16:56:52 10° SSE
USA 234 4.3 16:47:42 10° ENE 16:52:43 23° SE 16:57:42 10° S
Cosmos 1898 Rocket 3.5 16:48:32 10° SSW 16:53:43 89° WNW 16:58:57 10° NNE
Cosmos 1536 Rocket 3.5 16:54:45 10° N 16:59:12 69° ENE 17:03:38 10° SSE
Meteor 2-5 Rocket 4.1 16:55:55 10° N 17:01:17 45° ENE 17:05:36 16° SE
Terra 3.9 17:01:26 10° ENE 17:03:28 13° NE 17:05:39 10° NNE
DMSP B5D2-2 4.4 16:58:25 10° NNE 17:03:30 45° E 17:08:34 10° S
USA 229 DEB 4.3 16:57:50 10° WSW 17:04:25 59° NNW 17:11:30 10° NE
USA 229 4.3 16:57:56 10° WSW 17:04:31 59° NNW 17:11:35 10° NE
NOSS 3-2 (C) 4.0 16:57:23 10° NW 17:04:33 87° NE 17:11:17 17° SE
Cosmos 858 Rocket 4.5 17:01:46 10° SSW 17:07:00 88° ESE 17:12:15 10° NNE
Cosmos 1626 3.2 17:04:23 10° N 17:07:37 27° ENE 17:08:46 23° E
Exosat Rocket 4.5 17:04:17 10° SSE 17:08:35 25° ESE 17:12:38 10° NE
Nadezhda 4 Rocket 3.9 17:06:11 10° N 17:12:22 84° ENE 17:18:30 10° SSE
Cosmos 372 Rocket 4.0 17:08:04 10° S 17:13:12 56° ESE 17:18:19 10° NNE
Cosmos 1025 Rocket 3.3 17:09:06 10° NNW 17:13:28 72° W 17:17:50 10° S
Cosmos 1072 Rocket 4.5 17:07:44 10° S 17:14:00 84° E 17:20:24 10° NNE
Cosmos 2150 Rocket 4.4 17:10:08 10° S 17:15:09 41° ESE 17:20:15 10° NE
CREW DRAGON DEMO-1 DEB 3.6 17:12:25 10° WSW 17:15:16 38° S 17:16:06 30° SE
Cosmos 2151 Rocket 3.6 17:11:02 10° S 17:15:25 58° E 17:19:51 10° NNE
NOSS 3-1 (A) 4.1 17:10:39 10° WSW 17:16:30 59° NNW 17:23:32 10° NE
CZ-4 R/B 4.5 17:13:59 10° SW 17:16:38 16° W 17:19:18 10° NW
Cosmos 1975 4.5 17:12:49 10° SW 17:16:39 38° WNW 17:20:31 10° N
Cosmos 2082 Rocket 3.4 17:14:40 10° NNW 17:19:34 29° NNE 17:22:53 17° E
Cosmos 2034 Rocket 4.0 17:13:54 10° S 17:20:13 67° E 17:26:31 10° NNE
USA 186 3.1 17:18:27 10° S 17:21:25 39° W 17:24:31 10° NNW
MOS 1 Rocket 3.6 17:17:41 10° N 17:22:15 64° WNW 17:26:34 10° SSW
Cosmos 1937 Rocket 3.7 17:18:18 10° SW 17:23:34 73° WNW 17:28:48 10° NNE
SPOT 5 4.4 17:21:41 19° E 17:23:45 24° NE 17:27:56 10° N
Cosmos 1125 Rocket 4.1 17:21:34 10° SSE 17:26:21 35° ESE 17:31:11 10° NE
Cosmos 1805 3.8 17:25:30 31° SE 17:26:28 36° E 17:30:06 10° NNE
COSMOS 2406 3.6 17:21:39 10° NNW 17:27:11 49° NE 17:30:13 25° ESE
NOSS 8 (H) 4.0 17:25:20 10° SW 17:28:22 85° SE 17:30:29 19° NE
NOSS 8 (E) 4.5 17:25:28 10° WSW 17:28:30 65° NW 17:31:17 12° NE
Meteor 1-24 Rocket 3.8 17:23:29 10° N 17:28:50 54° ENE 17:31:59 25° SE
Cosmos 2297 Rocket 4.4 17:25:28 10° W 17:30:00 24° NNW 17:34:33 10° NNE
OBJECT-B 0.9 17:28:11 23° S 17:30:05 77° WSW 17:33:22 10° NNW
NOSS 2-2 (E) 3.2 17:28:19 10° SW 17:31:52 61° SE 17:36:09 10° NE
Cosmos 1674 2.7 17:28:32 10° NNW 17:32:25 85° W 17:34:52 21° S
FREGAT/IRIS 4.2 17:34:35 13° SSW 17:36:34 29° W 17:38:55 10° NNW
ATLAS 2AS CENTAUR R/B 3.9 17:37:35 24° ESE 17:37:35 24° ESE 17:43:17 10° ENE
ERS-1 Rocket 4.0 17:37:24 25° E 17:38:57 30° ENE 17:43:19 10° N
SL-14 R/B 3.5 17:36:04 10° N 17:39:52 49° ENE 17:40:43 41° ESE
NOSS 2-2 (D) 3.2 17:36:47 10° SSW 17:40:18 59° SE 17:44:29 10° NE
CZ-2C R/B 2.7 17:34:55 10° NNE 17:40:27 89° ESE 17:46:03 10° SSW
H-2A R/B 4.2 17:38:06 10° SW 17:42:08 24° W 17:46:15 10° NW
Cosmos 1733 3.7 17:42:25 37° E 17:42:25 37° E 17:45:50 10° NNE
Resurs 01 Rocket 1.5 17:41:42 27° SSE 17:44:06 84° ENE 17:48:35 10° NNW
CENTAUR R/B 3.3 17:37:48 10° NW 17:45:34 73° SW 17:51:21 24° SSE
Lacrosse 4 Rocket 2.6 17:44:50 10° NNW 17:48:28 30° NNE 17:49:36 26° ENE
Landsat 7 4.0 17:46:54 36° ESE 17:48:33 54° ENE 17:53:13 10° N
KORONAS-FOTON 4.3 17:45:52 10° NNW 17:49:45 60° W 17:52:09 22° S
Cosmos 909 Rocket 4.5 17:42:52 10° NW 17:49:46 55° NNE 17:53:07 28° E
SJ-6B 4.4 17:46:49 10° SSW 17:50:12 32° W 17:53:37 10° NNW
ATLAS 3B R/B 2.8 17:45:08 10° NW 17:51:55 71° NNE 17:55:34 30° ESE
USA 238 DEB 4.4 17:46:10 10° NW 17:53:02 51° SW 17:58:10 19° SSE
USA 238 4.4 17:46:16 10° NW 17:53:09 51° SW 17:58:16 20° SSE
Cosmos 1634 Rocket 4.0 17:49:46 21° SSE 17:53:54 57° E 17:59:57 10° NNE
SPOT 1/Viking Rocket 3.8 17:53:07 36° ESE 17:54:54 53° ENE 17:59:56 10° N
Cosmos 1844 3.8 17:49:36 10° S 17:55:03 49° ESE 18:00:28 10° NE
Cosmos 2278 Rocket 4.3 17:58:55 11° ENE 17:58:55 11° ENE 17:59:13 10° ENE
ATLAS CENTAUR R/B 3.4 17:55:14 10° WNW 17:58:16 22° NNW 18:01:13 10° NE
Cosmos 2285 Rocket 4.0 17:52:16 10° S 17:58:23 55° ESE 18:04:35 10° NNE
Cosmos 1766 3.2 17:58:19 57° SE 17:58:45 62° E 18:02:40 10° NNE
Cosmos 1269 Rocket 4.0 17:53:27 10° NNW 17:58:49 90° WSW 18:01:04 36° SSE
Cosmos 2263 Rocket 3.2 17:54:49 10° WSW 18:00:13 48° NW 18:05:40 10° NNE
ARIANE 5 R/B 2.5 18:00:10 46° SSE 18:01:23 77° ENE 18:05:45 10° NNW
IGS 5A 3.4 18:00:40 53° SE 18:01:25 66° ENE 18:05:33 10° N
MetOp-B 4.1 17:59:48 33° SSE 18:02:21 85° ENE 18:07:46 10° NNW
Cosmos 1844 Rocket 2.5 18:01:39 10° SSW 18:07:10 68° ESE 18:12:45 10° NE
Cosmos 1455 Rocket 4.2 18:08:48 28° ENE 18:08:48 28° ENE 18:11:36 10° NNE
SJ 16-02 4.3 18:05:54 10° W 18:08:55 18° NW 18:11:57 10° N
Spot 2 Rocket 3.4 18:07:55 44° SE 18:09:29 74° ENE 18:14:33 10° NNW
Cosmos 1092 Rocket 4.3 18:04:34 10° NNW 18:10:39 64° W 18:15:35 16° S
Okean 1 Rocket 3.1 18:14:13 26° SSW 18:16:41 80° W 18:21:14 10° N
Cosmos 2026 Rocket 4.2 18:11:57 10° NNW 18:18:17 72° W 18:22:22 24° S
Lacrosse 5 rocket 1.6 18:14:07 10° W 18:18:31 72° N 18:19:36 50° ENE
Cosmos 1340 Rocket 3.6 18:19:45 38° NE 18:19:45 38° NE 18:22:31 10° NNE
Meteor 1-15 Rocket 4.4 18:13:00 10° SSW 18:18:39 73° WNW 18:24:25 10° NNE
Meteor 2-19 Rocket 4.4 18:13:24 10° N 18:19:34 71° ENE 18:21:36 44° SE
Cosmos 1833 Rocket 2.6 18:18:58 10° NNW 18:24:40 80° NE 18:26:05 52° SE
NOSS 2-2 (C) 3.4 18:21:16 10° WSW 18:24:54 72° NW 18:28:17 16° NE
CZ-2C R/B 3.7 18:20:35 10° NNE 18:25:03 77° WNW 18:27:16 29° SSW
Cosmos 2298 Rocket 4.4 18:21:47 10° SW 18:27:05 66° WNW 18:32:26 10° NNE
Cosmos 1461 4.4 18:25:00 10° NW 18:29:23 35° NNE 18:30:43 29° NE
Cosmos 2251 Rocket 3.7 18:26:11 10° NNW 18:31:32 60° ENE 18:32:20 53° E
USA 234 3.2 18:31:49 18° ENE 18:36:44 57° SSE 18:43:10 10° SW
H-2A R/B 3.9 18:33:43 10° NNE 18:37:01 51° NE 18:37:01 51° NE
Cosmos 2279 Rocket 3.9 18:36:18 45° SSE 18:38:17 73° E 18:44:33 10° NNE
Cosmos 2142 Rocket 4.4 18:36:37 37° S 18:39:19 83° E 18:45:35 10° NNE
Terra 2.0 18:40:19 54° ENE 18:40:19 54° ENE 18:44:57 10° N
Cosmos 1892 Rocket 3.9 18:38:11 10° NNW 18:42:28 58° W 18:42:56 54° SW
Cosmos 1626 3.4 18:39:32 10° NNW 18:42:56 34° W 18:43:18 33° WSW
CARTOSAT-1 3.6 18:52:23 75° NW 18:52:23 75° NW 18:56:25 10° NNW
SPOT 5 2.9 19:00:55 77° SSW 19:01:15 83° WSW 19:06:37 10° NNW
NOSS 3-4 (A) 4.4 19:06:43 33° ENE 19:06:43 33° ENE 19:10:25 10° NE
NOSS 3-4 (C) 4.4 19:06:53 33° ENE 19:06:53 33° ENE 19:10:31 10° NE
Cosmos 2082 Rocket 2.0 18:58:43 10° NW 19:04:23 90° NNE 19:04:43 80° SE
Cosmos 1125 Rocket 4.3 19:03:07 10° SW 19:08:18 52° NW 19:13:32 10° NNE
Okean 1-7 Rocket 4.4 19:04:39 10° NNW 19:09:02 46° W 19:09:15 45° WSW
Exosat Rocket 4.0 19:04:29 10° SW 19:09:40 57° NW 19:14:41 10° NNE
COSMOS 2406 3.8 19:06:08 10° NW 19:11:30 44° WSW 19:12:17 42° SW
Cosmos 1726 4.5 19:19:59 19° NNE 19:19:59 19° NNE 19:21:08 10° NNE
ERS-1 Rocket 3.3 19:17:24 57° WSW 19:17:32 57° W 19:22:31 10° NNW
SME Rocket 4.2 19:11:07 10° NNE 19:16:38 50° ENE 19:16:38 50° ENE
Cosmos 2266 Rocket 3.9 19:14:13 10° NNW 19:20:17 74° W 19:21:01 66° SSW
Cosmos 614 Rocket 4.1 19:15:51 10° NNW 19:20:34 65° NNE 19:20:34 65° NNE
Resurs 01 Rocket 4.1 19:19:16 13° WSW 19:21:12 16° W 19:24:03 10° NW
Cosmos 2098 Rocket 4.5 19:14:24 10° NNW 19:21:39 64° W 19:23:23 48° SSW
Meteor 2-21 4.3 19:16:42 10° NNW 19:22:56 83° ENE 19:23:17 79° SE
Cosmos 1809 Rocket 4.3 19:17:36 10° NNW 19:23:50 87° W 19:24:19 78° S
Cosmos 1602 Rocket 4.3 19:19:55 10° NNW 19:23:13 50° NNW 19:23:13 50° NNW
Cosmos 1953 4.3 19:28:08 24° NNE 19:28:08 24° NNE 19:29:49 10° NNE
Cosmos 1655 Rocket 4.4 19:20:04 10° NNW 19:26:10 56° W 19:27:33 46° SW
Meteor 1-21 Rocket 4.3 19:20:42 10° NNW 19:26:22 68° W 19:26:43 66° WSW
ATLAS 2AS CENTAUR R/B 2.9 19:24:48 46° SSW 19:27:19 70° SE 19:35:04 10° NE
Lacrosse 4 Rocket 2.8 19:23:24 10° NW 19:25:54 35° WNW 19:25:54 35° WNW
Nadezhda 2 Rocket 4.4 19:31:09 10° N 19:37:13 76° ENE 19:37:13 76° ENE
ATLAS CENTAUR R/B 3.4 19:35:11 10° NW 19:37:32 21° N 19:37:32 21° N
Cosmos 2278 Rocket 2.9 19:40:44 45° NE 19:40:44 45° NE 19:44:38 10° NE
ATLAS 3B R/B 3.2 19:36:01 10° NW 19:42:26 45° SW 19:42:49 45° SW
Cosmos 1455 Rocket 4.4 19:45:54 37° NW 19:45:54 37° NW 19:49:36 10° N
Meteor 2-10 4.4 19:48:52 67° NW 19:48:52 67° NW 19:54:05 10° N
Cosmos 909 Rocket 4.4 19:43:43 10° NW 19:50:00 50° WSW 19:50:00 50° WSW
NOSS 3-1 (C) 4.4 19:44:04 10° WNW 19:50:36 53° NNE 19:54:08 31° E
Cosmos 1844 Rocket 4.1 19:46:22 10° WSW 19:51:30 36° NW 19:56:40 10° NNE
Meteor 1-11 4.4 19:51:52 10° NNW 19:56:45 68° NNW 19:56:45 68° NNW
Lacrosse 5 rocket 3.4 19:53:22 10° WNW 19:55:13 24° WNW 19:55:13 24° WNW
Meteor 2-16 Rocket 4.5 20:00:32 10° NNW 20:06:18 74° WNW 20:06:18 74° WNW
Cosmos 1833 Rocket 4.3 20:03:33 10° NW 20:07:46 25° W 20:07:46 25° W
Cosmos 407 Rocket 4.3 20:06:12 10° NNW 20:09:56 48° NW 20:09:56 48° NW
Cosmos 1745 Rocket 4.2 20:06:37 10° N 20:12:07 63° NE 20:12:07 63° NE
Terra 3.6 20:19:12 26° WNW 20:19:12 26° WNW 20:22:25 10° NW
USA 234 3.1 20:13:29 10° ENE 20:20:03 86° NNW 20:26:38 10° W
Cosmos 1140 Rocket 4.4 20:18:09 10° NNW 20:21:42 44° NW 20:21:42 44° NW
MOS 1-B Rocket 4.4 20:22:26 10° NNE 20:29:03 76° WNW 20:29:46 70° WSW
ALOS 2 4.4 20:33:26 30° N 20:33:26 30° N 20:35:44 10° NNW
SL-16 R/B 4.5 20:42:08 16° ENE 20:44:46 21° NE 20:49:07 10° N
Cosmos 1709 Rocket 4.3 20:41:36 10° N 20:46:53 61° NNE 20:46:53 61° NNE
Cosmos 2082 Rocket 4.1 20:43:40 10° NW 20:46:33 20° W 20:46:33 20° W
USA 229 DEB 4.1 20:41:34 10° NW 20:48:36 65° NNE 20:49:59 55° ENE
USA 229 4.1 20:41:40 10° NW 20:48:42 65° NNE 20:50:06 55° ENE
COSMOS 2455 3.5 20:52:44 47° NE 20:52:44 47° NE 20:56:57 10° NE
Cosmos 1943 Rocket 3.7 20:54:15 28° NE 20:54:15 28° NE 20:56:59 10° NE
S3M 4.3 20:53:53 61° NNE 20:53:53 61° NNE 20:58:56 10° NNE
NOSS 3-4 (A) 3.9 20:54:06 53° WNW 20:55:04 60° NNW 21:01:43 10° NE
NOSS 3-4 (C) 3.9 20:54:16 54° WNW 20:55:10 60° NNW 21:01:49 10° NE
NOSS 3-1 (A) 4.2 20:53:48 10° NW 21:00:38 64° NNE 21:02:58 45° E
Cosmos 2297 Rocket 4.1 20:57:35 10° NNW 21:02:15 25° NNE 21:05:21 16° ENE
Cosmos 2315 Rocket 4.5 21:13:48 54° NE 21:13:48 54° NE 21:18:57 10° NNE
CZ-4C R/B 3.2 21:16:51 43° NE 21:16:51 43° NE 21:21:13 10° NE
Cosmos 2369 Rocket 3.6 21:17:31 31° ENE 21:17:31 31° ENE 21:20:37 10° NE
Thor Agena Rocket 4.5 21:12:58 10° NNE 21:16:46 47° N 21:16:46 47° N
ATLAS 2AS CENTAUR R/B 3.4 21:11:59 15° W 21:18:42 59° NNW 21:26:18 10° NE
Cosmos 2278 Rocket 3.5 21:22:33 32° WNW 21:23:33 34° NW 21:28:43 10° NNE
NOSS 3-1 (C) 3.9 21:34:58 10° NW 21:41:29 76° W 21:41:29 76° W
Cosmos 2227 Rocket 3.5 21:54:38 10° NNW 21:59:52 37° NE 22:01:47 29° ENE
USA 234 3.2 21:56:32 10° E 22:03:05 82° N 22:09:39 10° WNW
Timation 2 Rocket 4.2 21:58:09 10° NW 22:04:09 65° NE 22:04:09 65° NE
Meteor 2-3 Rocket 4.3 22:02:16 10° NNW 22:06:32 53° N 22:06:32 53° N
Cosmos 2219 3.9 22:08:06 10° NNW 22:13:39 50° NE 22:14:03 49° ENE
ADEOS II 4.5 22:13:08 10° NE 22:15:31 13° E 22:16:36 12° E
Cosmos 2154 Rocket 4.1 22:09:30 10° N 22:15:13 72° NNE 22:15:13 72° NNE
Cosmos 2074 Rocket 4.4 22:21:06 10° NNW 22:26:18 55° NW 22:26:18 55° NW
SL-16 R/B 2.6 22:27:13 67° ENE 22:27:25 68° ENE 22:33:34 10° NNW
Cosmos 2341 Rocket 4.3 22:21:27 10° N 22:27:47 60° ENE 22:28:12 59° E
Cosmos 968 Rocket 4.2 22:24:10 10° NNW 22:28:23 51° N 22:28:23 51° N
Cosmos 1943 Rocket 2.9 22:35:46 46° NW 22:35:46 46° NW 22:40:52 10° NNE
COSMOS 2455 4.0 22:35:52 32° WNW 22:37:27 38° NNW 22:43:04 10° NE
Cosmos 1656 Rocket 4.0 22:40:20 61° NNE 22:40:20 61° NNE 22:44:56 10° NNE
USA 229 DEB 4.5 22:32:40 10° NW 22:37:21 41° WNW 22:37:21 41° WNW
CZ-2D R/B 3.2 22:34:48 10° NNE 22:39:26 37° E 22:39:26 37° E
USA 229 4.5 22:32:46 10° NW 22:37:28 41° WNW 22:37:28 41° WNW
ATLAS 5 CENTAUR R/B 3.7 22:44:53 20° E 22:44:53 20° E 22:46:53 10° ENE
Cosmos 2297 Rocket 2.4 22:41:37 10° NNW 22:47:05 68° NE 22:47:05 68° NE
NOSS 3-1 (A) 4.2 22:44:42 10° NW 22:50:19 52° W 22:50:19 52° W
Resurs 1-4 Rocket 2.8 22:49:01 10° NNE 22:53:50 47° E 22:53:50 47° E
SL-19 R/B 4.4 22:51:45 10° NNE 22:56:20 62° ENE 22:56:20 62° ENE
Nadezhda 1 Rocket 3.9 22:58:04 81° NW 22:58:04 81° NW 23:03:58 10° N
Cosmos 2369 Rocket 2.8 22:59:18 46° NW 22:59:19 46° NW 23:04:48 10° NNE
Cosmos 1354 Rocket 4.3 22:55:12 10° NNW 23:00:17 62° NE 23:00:17 62° NE
Gbstr 26 Del rocket 4.4 23:02:21 66° S 23:02:39 67° S 23:10:27 10° E
CZ-4C R/B 3.2 23:02:00 36° WNW 23:03:51 47° NNW 23:10:32 10° ENE
NOSS 2-2 (E) 4.5 23:00:47 10° NW 23:05:42 68° NNE 23:12:32 10° ESE
USA 267 4.5 23:02:04 10° ENE 23:07:23 26° SE 23:07:36 26° SE
ATLAS 2AS CENTAUR R/B 3.8 23:03:25 10° WNW 23:11:00 47° N 23:18:10 10° ENE
SJ 16-02 4.4 23:08:40 10° N 23:11:17 15° NE 23:13:53 10° ENE
Cosmos 1503 Rocket 4.3 23:08:39 10° NNW 23:12:55 60° NNW 23:12:55 60° NNW
NOSS 2-2 (D) 4.4 23:09:37 12° NW 23:14:07 66° NNE 23:20:48 10° ESE
Cosmos 2263 Rocket 4.0 23:12:32 10° NNW 23:17:27 29° NNE 23:22:23 10° E
Helios 1B rocket 4.0 23:16:21 10° N 23:18:47 30° NNW 23:18:47 30° NNW
Cosmos 405 Rocket 4.2 23:16:45 10° N 23:19:57 37° NE 23:19:57 37° NE
IRAS Rocket 4.2 23:22:14 71° WNW 23:22:14 71° WNW 23:27:24 10° NNW
ATLAS CENTAUR R/B 4.3 23:07:29 18° WSW 23:22:51 88° NNW 23:29:54 10° ENE
Cosmos 1818 4.3 23:24:54 40° ESE 23:24:54 40° ESE 23:29:55 10° NE
BREEZE-M DEB (TANK) 4.5 23:26:52 46° SSE 23:26:52 46° SSE 23:39:40 10° E
SL-8 Rocket 3.8 23:20:52 10° NNW 23:27:11 79° W 23:27:37 74° SW
Cosmos 2221 3.4 23:29:14 45° N 23:29:14 45° N 23:32:20 10° N
COBE Rocket 4.5 23:31:38 49° NW 23:31:38 49° NW 23:35:34 10° NNW
Cosmos 2218 Rocket 3.9 23:31:58 10° NNW 23:38:23 77° W 23:39:21 64° SSW
Meteor 2-2 Rocket 4.1 23:40:08 76° SW 23:40:33 82° WNW 23:46:25 10° NNE
Cosmos 2366 rocket 3.9 23:34:41 10° NNW 23:40:59 77° W 23:41:56 64° SSW
Cosmos 1842 Rocket 4.4 23:43:34 44° NNW 23:43:34 44° NNW 23:47:01 10° N
Sich 1 3.7 23:38:53 10° NNW 23:42:00 47° NNW 23:42:00 47° NNW
Cosmos 2227 Rocket 2.3 23:38:43 10° NW 23:43:29 58° WNW 23:43:29 58° WNW
USA 234 3.1 23:39:47 10° SE 23:46:18 68° SSW 23:50:26 24° WNW
Cosmos 1777 Rocket 4.4 23:41:06 10° NNW 23:46:20 63° ENE 23:51:31 10° SE
Cosmos 292 Rocket 4.0 23:48:09 59° NW 23:48:09 59° NW 23:52:35 10° NNE
Cosmos 1656 4.3 23:49:11 40° SSE 23:50:20 46° ESE 23:55:36 10° NE
Cosmos 1992 Rocket 4.2 23:50:18 55° SSE 23:51:00 61° ESE 23:56:10 10° NNE
Lacrosse 5 3.7 23:53:36 18° SE 23:54:14 19° SE 23:57:44 10° E
